Time,TemperatureF,DewpointF,PressureIn,WindDirection,WindDirectionDegrees,WindSpeedMPH,WindSpeedGustMPH,Humidity,HourlyPrecipIn,Conditions,Clouds,dailyrainin,SoftwareType,DateUTC
2013-04-20 00:02:00,46.0,25.0,29.96,SSE,147,0.0,1.0,44,0.00,,,0.00,,2013-04-20 06:02:00,
2013-04-20 00:12:00,46.0,25.0,29.96,SSE,147,0.0,1.0,44,0.00,,,0.00,,2013-04-20 06:12:00,
2013-04-20 00:21:00,46.0,26.0,29.96,SSE,152,0.0,2.0,45,0.00,,,0.00,,2013-04-20 06:21:00,
2013-04-20 00:32:00,46.0,26.0,29.95,SSE,159,1.0,3.0,46,0.00,,,0.00,,2013-04-20 06:32:00,
2013-04-20 00:42:00,46.0,26.0,29.95,SSE,159,1.0,3.0,46,0.00,,,0.00,,2013-04-20 06:42:00,
2013-04-20 00:52:00,45.0,25.0,29.94,SSE,164,2.0,4.0,46,0.00,,,0.00,,2013-04-20 06:52:00,
2013-04-20 01:01:00,46.0,24.0,29.94,South,179,2.0,8.0,42,0.00,,,0.00,,2013-04-20 07:01:00,
2013-04-20 01:11:00,46.0,24.0,29.94,South,179,2.0,8.0,42,0.00,,,0.00,,2013-04-20 07:11:00,
2013-04-20 01:21:00,45.0,23.0,29.94,SE,141,3.0,7.0,42,0.00,,,0.00,,2013-04-20 07:21:00,
2013-04-20 01:32:00,45.0,23.0,29.93,South,169,1.0,5.0,42,0.00,,,0.00,,2013-04-20 07:32:00,
2013-04-20 01:42:00,45.0,23.0,29.93,South,169,1.0,5.0,42,0.00,,,0.00,,2013-04-20 07:42:00,
2013-04-20 01:52:00,45.0,23.0,29.92,SSE,161,1.0,5.0,42,0.00,,,0.00,,2013-04-20 07:52:00,
2013-04-20 02:01:00,44.0,23.0,29.92,SSW,211,0.0,2.0,44,0.00,,,0.00,,2013-04-20 08:01:00,
2013-04-20 02:11:00,44.0,23.0,29.92,SSW,211,0.0,2.0,44,0.00,,,0.00,,2013-04-20 08:11:00,
2013-04-20 02:21:00,44.0,25.0,29.91,SW,236,0.0,2.0,47,0.00,,,0.00,,2013-04-20 08:21:00,
2013-04-20 02:32:00,44.0,25.0,29.90,West,280,0.0,4.0,47,0.00,,,0.00,,2013-04-20 08:32:00,
2013-04-20 02:42:00,44.0,25.0,29.90,West,280,0.0,4.0,47,0.00,,,0.00,,2013-04-20 08:42:00,
2013-04-20 02:52:00,43.0,24.0,29.89,West,280,0.0,0.0,47,0.00,,,0.00,,2013-04-20 08:52:00,
2013-04-20 03:01:00,43.0,26.0,29.88,WSW,239,0.0,2.0,50,0.00,,,0.00,,2013-04-20 09:01:00,
2013-04-20 03:12:00,43.0,26.0,29.88,WSW,239,0.0,2.0,50,0.00,,,0.00,,2013-04-20 09:12:00,
2013-04-20 03:21:00,42.0,25.0,29.88,WNW,282,0.0,3.0,51,0.00,,,0.00,,2013-04-20 09:21:00,
2013-04-20 03:33:00,42.0,26.0,29.88,WNW,300,0.0,3.0,53,0.00,,,0.00,,2013-04-20 09:33:00,
2013-04-20 03:43:00,42.0,26.0,29.88,WNW,300,0.0,3.0,53,0.00,,,0.00,,2013-04-20 09:43:00,
2013-04-20 03:53:00,41.0,26.0,29.87,WNW,300,0.0,0.0,54,0.00,,,0.00,,2013-04-20 09:53:00,
2013-04-20 04:02:00,40.0,26.0,29.87,WNW,296,0.0,2.0,56,0.00,,,0.00,,2013-04-20 10:02:00,
2013-04-20 04:13:00,40.0,26.0,29.87,WNW,296,0.0,2.0,56,0.00,,,0.00,,2013-04-20 10:13:00,
2013-04-20 04:23:00,39.0,25.0,29.87,WNW,296,0.0,0.0,58,0.00,,,0.00,,2013-04-20 10:23:00,
2013-04-20 04:33:00,38.0,26.0,29.86,SW,222,0.0,2.0,61,0.00,,,0.00,,2013-04-20 10:33:00,
2013-04-20 04:42:00,38.0,26.0,29.86,SW,222,0.0,2.0,61,0.00,,,0.00,,2013-04-20 10:42:00,
2013-04-20 04:53:00,37.0,25.0,29.85,South,188,0.0,0.0,62,0.00,,,0.00,,2013-04-20 10:53:00,
2013-04-20 05:02:00,37.0,25.0,29.85,South,188,0.0,0.0,62,0.00,,,0.00,,2013-04-20 11:02:00,
2013-04-20 05:12:00,37.0,25.0,29.85,South,188,0.0,0.0,62,0.00,,,0.00,,2013-04-20 11:12:00,
2013-04-20 05:23:00,37.0,27.0,29.86,North,355,1.0,2.0,67,0.00,,,0.00,,2013-04-20 11:23:00,
2013-04-20 05:32:00,36.0,25.0,29.85,North,355,0.0,2.0,65,0.00,,,0.00,,2013-04-20 11:32:00,
2013-04-20 05:42:00,36.0,25.0,29.85,North,355,0.0,2.0,65,0.00,,,0.00,,2013-04-20 11:42:00,
2013-04-20 05:53:00,37.0,27.0,29.85,North,5,0.0,3.0,68,0.00,,,0.00,,2013-04-20 11:53:00,
2013-04-20 06:02:00,36.0,26.0,29.86,North,5,0.0,0.0,68,0.00,,,0.00,,2013-04-20 12:02:00,
2013-04-20 06:11:00,36.0,26.0,29.86,North,5,0.0,0.0,68,0.00,,,0.00,,2013-04-20 12:11:00,
2013-04-20 06:22:00,35.0,27.0,29.86,North,5,0.0,0.0,72,0.00,,,0.00,,2013-04-20 12:22:00,
2013-04-20 06:32:00,34.0,27.0,29.86,North,5,0.0,0.0,74,0.00,,,0.00,,2013-04-20 12:32:00,
2013-04-20 06:42:00,34.0,27.0,29.86,North,5,0.0,0.0,74,0.00,,,0.00,,2013-04-20 12:42:00,
2013-04-20 06:52:00,33.0,26.0,29.87,North,5,0.0,0.0,76,0.00,,,0.00,,2013-04-20 12:52:00,
2013-04-20 07:02:00,33.0,27.0,29.88,North,5,0.0,0.0,78,0.00,,,0.00,,2013-04-20 13:02:00,
2013-04-20 07:11:00,33.0,27.0,29.88,North,5,0.0,0.0,78,0.00,,,0.00,,2013-04-20 13:11:00,
2013-04-20 07:21:00,34.0,28.0,29.88,North,5,0.0,1.0,78,0.00,,,0.00,,2013-04-20 13:21:00,
2013-04-20 07:32:00,36.0,29.0,29.88,North,5,0.0,0.0,75,0.00,,,0.00,,2013-04-20 13:32:00,
2013-04-20 07:42:00,36.0,29.0,29.88,North,5,0.0,0.0,75,0.00,,,0.00,,2013-04-20 13:42:00,
2013-04-20 07:52:00,37.0,29.0,29.88,North,5,0.0,0.0,74,0.00,,,0.00,,2013-04-20 13:52:00,
2013-04-20 08:02:00,39.0,30.0,29.88,NNE,14,0.0,5.0,70,0.00,,,0.00,,2013-04-20 14:02:00,
2013-04-20 08:11:00,39.0,30.0,29.88,NNE,14,0.0,5.0,70,0.00,,,0.00,,2013-04-20 14:11:00,
2013-04-20 08:21:00,41.0,30.0,29.88,NNE,14,0.0,2.0,65,0.00,,,0.00,,2013-04-20 14:21:00,
2013-04-20 08:32:00,42.0,29.0,29.88,NNE,14,0.0,1.0,60,0.00,,,0.00,,2013-04-20 14:32:00,
2013-04-20 08:42:00,42.0,29.0,29.88,NNE,14,0.0,1.0,60,0.00,,,0.00,,2013-04-20 14:42:00,
2013-04-20 08:52:00,43.0,28.0,29.88,East,91,1.0,3.0,56,0.00,,,0.00,,2013-04-20 14:52:00,
2013-04-20 09:01:00,44.0,29.0,29.88,East,91,0.0,1.0,55,0.00,,,0.00,,2013-04-20 15:01:00,
2013-04-20 09:11:00,44.0,29.0,29.88,East,91,0.0,1.0,55,0.00,,,0.00,,2013-04-20 15:11:00,
2013-04-20 09:21:00,45.0,29.0,29.88,East,92,0.0,3.0,53,0.00,,,0.00,,2013-04-20 15:21:00,
2013-04-20 09:33:00,46.0,28.0,29.88,East,92,0.0,0.0,50,0.00,,,0.00,,2013-04-20 15:33:00,
2013-04-20 09:43:00,46.0,28.0,29.88,East,92,0.0,0.0,50,0.00,,,0.00,,2013-04-20 15:43:00,
2013-04-20 09:53:00,46.0,27.0,29.88,North,355,1.0,3.0,48,0.00,,,0.00,,2013-04-20 15:53:00,
2013-04-20 10:03:00,47.0,28.0,29.88,NNE,26,2.0,5.0,48,0.00,,,0.00,,2013-04-20 16:03:00,
2013-04-20 10:12:00,47.0,28.0,29.88,NNE,26,2.0,5.0,48,0.00,,,0.00,,2013-04-20 16:12:00,
2013-04-20 10:23:00,48.0,30.0,29.88,North,355,1.0,4.0,49,0.00,,,0.00,,2013-04-20 16:23:00,
2013-04-20 10:32:00,48.0,29.0,29.88,North,360,1.0,5.0,47,0.00,,,0.00,,2013-04-20 16:32:00,
2013-04-20 10:42:00,48.0,29.0,29.88,North,360,1.0,5.0,47,0.00,,,0.00,,2013-04-20 16:42:00,
2013-04-20 10:53:00,49.0,29.0,29.88,North,350,0.0,2.0,46,0.00,,,0.00,,2013-04-20 16:53:00,
2013-04-20 11:02:00,50.0,29.0,29.88,NW,326,1.0,4.0,44,0.00,,,0.00,,2013-04-20 17:02:00,
2013-04-20 11:12:00,50.0,29.0,29.88,NW,326,1.0,4.0,44,0.00,,,0.00,,2013-04-20 17:12:00,
2013-04-20 11:23:00,51.0,29.0,29.88,WNW,291,1.0,5.0,43,0.00,,,0.00,,2013-04-20 17:23:00,
2013-04-20 11:33:00,52.0,30.0,29.88,NNE,32,1.0,5.0,43,0.00,,,0.00,,2013-04-20 17:33:00,
2013-04-20 11:42:00,52.0,30.0,29.88,NNE,32,1.0,5.0,43,0.00,,,0.00,,2013-04-20 17:42:00,
2013-04-20 11:52:00,52.0,30.0,29.87,NNE,16,2.0,8.0,42,0.00,,,0.00,,2013-04-20 17:52:00,
2013-04-20 12:02:00,53.0,29.0,29.87,NNE,19,4.0,8.0,40,0.00,,,0.00,,2013-04-20 18:02:00,
2013-04-20 12:12:00,53.0,29.0,29.87,NNE,19,4.0,8.0,40,0.00,,,0.00,,2013-04-20 18:12:00,
2013-04-20 12:22:00,53.0,28.0,29.86,NNE,15,4.0,10.0,38,0.00,,,0.00,,2013-04-20 18:22:00,
2013-04-20 12:32:00,54.0,27.0,29.86,North,5,6.0,9.0,35,0.00,,,0.00,,2013-04-20 18:32:00,
2013-04-20 12:42:00,54.0,27.0,29.86,North,5,6.0,9.0,35,0.00,,,0.00,,2013-04-20 18:42:00,
2013-04-20 12:52:00,54.0,28.0,29.85,NE,52,4.0,11.0,36,0.00,,,0.00,,2013-04-20 18:52:00,
2013-04-20 13:01:00,55.0,29.0,29.85,NNE,16,2.0,9.0,36,0.00,,,0.00,,2013-04-20 19:01:00,
2013-04-20 13:11:00,56.0,29.0,29.85,NNE,26,6.0,12.0,35,0.00,,,0.00,,2013-04-20 19:11:00,
2013-04-20 13:21:00,56.0,29.0,29.85,NNE,26,6.0,12.0,35,0.00,,,0.00,,2013-04-20 19:21:00,
2013-04-20 13:32:00,55.0,28.0,29.85,ESE,120,5.0,9.0,35,0.00,,,0.00,,2013-04-20 19:32:00,
2013-04-20 13:42:00,56.0,27.0,29.85,WSW,247,1.0,6.0,32,0.00,,,0.00,,2013-04-20 19:42:00,
2013-04-20 13:52:00,56.0,27.0,29.85,WSW,247,1.0,6.0,32,0.00,,,0.00,,2013-04-20 19:52:00,
2013-04-20 14:02:00,58.0,28.0,29.85,NE,44,2.0,9.0,31,0.00,,,0.00,,2013-04-20 20:02:00,
2013-04-20 14:12:00,58.0,28.0,29.85,NE,44,2.0,9.0,31,0.00,,,0.00,,2013-04-20 20:12:00,
2013-04-20 14:21:00,57.0,27.0,29.84,NW,323,2.0,11.0,31,0.00,,,0.00,,2013-04-20 20:21:00,
2013-04-20 14:32:00,58.0,28.0,29.84,NE,42,1.0,7.0,31,0.00,,,0.00,,2013-04-20 20:32:00,
2013-04-20 14:42:00,58.0,28.0,29.84,NE,42,1.0,7.0,31,0.00,,,0.00,,2013-04-20 20:42:00,
2013-04-20 14:52:00,59.0,28.0,29.83,NE,44,3.0,9.0,30,0.00,,,0.00,,2013-04-20 20:52:00,
2013-04-20 15:01:00,57.0,27.0,29.83,ESE,114,1.0,6.0,32,0.00,,,0.00,,2013-04-20 21:01:00,
2013-04-20 15:12:00,57.0,27.0,29.83,ESE,114,1.0,6.0,32,0.00,,,0.00,,2013-04-20 21:12:00,
2013-04-20 15:21:00,57.0,28.0,29.83,SE,128,0.0,8.0,33,0.00,,,0.00,,2013-04-20 21:21:00,
2013-04-20 15:33:00,57.0,27.0,29.83,SE,128,1.0,8.0,32,0.00,,,0.00,,2013-04-20 21:33:00,
2013-04-20 15:43:00,57.0,27.0,29.83,SE,128,1.0,8.0,32,0.00,,,0.00,,2013-04-20 21:43:00,
2013-04-20 15:53:00,58.0,28.0,29.83,NNE,17,1.0,6.0,32,0.00,,,0.00,,2013-04-20 21:53:00,
2013-04-20 16:02:00,57.0,27.0,29.82,NNE,22,2.0,4.0,31,0.00,,,0.00,,2013-04-20 22:02:00,
2013-04-20 16:12:00,57.0,27.0,29.82,NNE,22,2.0,4.0,31,0.00,,,0.00,,2013-04-20 22:12:00,
2013-04-20 16:22:00,57.0,27.0,29.82,ESE,115,2.0,8.0,31,0.00,,,0.00,,2013-04-20 22:22:00,
2013-04-20 16:32:00,57.0,27.0,29.81,ESE,117,2.0,7.0,31,0.00,,,0.00,,2013-04-20 22:32:00,
2013-04-20 16:42:00,57.0,27.0,29.81,ESE,117,2.0,7.0,31,0.00,,,0.00,,2013-04-20 22:42:00,
2013-04-20 16:53:00,56.0,27.0,29.82,North,5,4.0,9.0,32,0.00,,,0.00,,2013-04-20 22:53:00,
2013-04-20 17:02:00,55.0,26.0,29.82,ESE,107,3.0,9.0,32,0.00,,,0.00,,2013-04-20 23:02:00,
2013-04-20 17:11:00,55.0,26.0,29.82,ESE,107,3.0,9.0,32,0.00,,,0.00,,2013-04-20 23:11:00,
2013-04-20 17:22:00,55.0,27.0,29.83,NE,38,3.0,6.0,34,0.00,,,0.00,,2013-04-20 23:22:00,
2013-04-20 17:32:00,55.0,26.0,29.83,ESE,109,2.0,5.0,33,0.00,,,0.00,,2013-04-20 23:32:00,
2013-04-20 17:42:00,55.0,26.0,29.83,ESE,109,2.0,5.0,33,0.00,,,0.00,,2013-04-20 23:42:00,
2013-04-20 17:53:00,55.0,26.0,29.83,ESE,113,3.0,5.0,33,0.00,,,0.00,,2013-04-20 23:53:00,
2013-04-20 18:01:00,55.0,26.0,29.83,ESE,113,3.0,5.0,33,0.00,,,0.00,,2013-04-21 00:01:00,
2013-04-20 18:11:00,55.0,26.0,29.83,ESE,113,3.0,5.0,33,0.00,,,0.00,,2013-04-21 00:11:00,
2013-04-20 18:21:00,51.0,34.0,29.85,SSW,207,3.0,15.0,52,0.00,,,0.00,,2013-04-21 00:21:00,
2013-04-20 18:32:00,50.0,32.0,29.86,SSE,148,2.0,8.0,50,0.00,,,0.00,,2013-04-21 00:32:00,
2013-04-20 18:42:00,50.0,32.0,29.86,SSE,148,2.0,8.0,50,0.00,,,0.00,,2013-04-21 00:42:00,
2013-04-20 18:52:00,50.0,32.0,29.87,ESE,103,1.0,5.0,50,0.00,,,0.00,,2013-04-21 00:52:00,
2013-04-20 19:01:00,50.0,33.0,29.87,ESE,113,2.0,5.0,52,0.00,,,0.00,,2013-04-21 01:01:00,
2013-04-20 19:12:00,50.0,33.0,29.87,ESE,113,2.0,5.0,52,0.00,,,0.00,,2013-04-21 01:12:00,
2013-04-20 19:21:00,51.0,34.0,29.87,SSE,166,3.0,5.0,53,0.00,,,0.00,,2013-04-21 01:21:00,
2013-04-20 19:31:00,49.0,34.0,29.88,SSE,165,3.0,12.0,55,0.00,,,0.00,,2013-04-21 01:31:00,
2013-04-20 19:42:00,49.0,34.0,29.88,SSE,165,3.0,12.0,55,0.00,,,0.00,,2013-04-21 01:42:00,
2013-04-20 19:52:00,49.0,34.0,29.88,SSE,162,2.0,6.0,56,0.00,,,0.00,,2013-04-21 01:52:00,
2013-04-20 20:01:00,48.0,34.0,29.89,South,184,0.0,3.0,57,0.00,,,0.00,,2013-04-21 02:01:00,
2013-04-20 20:11:00,48.0,34.0,29.89,South,184,0.0,3.0,57,0.00,,,0.00,,2013-04-21 02:11:00,
2013-04-20 20:21:00,48.0,34.0,29.89,South,186,0.0,2.0,59,0.00,,,0.00,,2013-04-21 02:21:00,
2013-04-20 20:32:00,48.0,35.0,29.90,SSW,209,0.0,3.0,60,0.00,,,0.00,,2013-04-21 02:32:00,
2013-04-20 20:42:00,48.0,35.0,29.90,SSW,209,0.0,3.0,60,0.00,,,0.00,,2013-04-21 02:42:00,
2013-04-20 20:52:00,47.0,34.0,29.91,SSW,209,0.0,1.0,60,0.00,,,0.00,,2013-04-21 02:52:00,
2013-04-20 21:01:00,47.0,34.0,29.92,SW,218,0.0,2.0,61,0.00,,,0.00,,2013-04-21 03:01:00,
2013-04-20 21:11:00,47.0,34.0,29.92,SW,218,0.0,2.0,61,0.00,,,0.00,,2013-04-21 03:11:00,
2013-04-20 21:21:00,47.0,34.0,29.92,South,179,1.0,4.0,61,0.00,,,0.00,,2013-04-21 03:21:00,
2013-04-20 21:33:00,47.0,35.0,29.92,SSW,198,0.0,5.0,62,0.00,,,0.00,,2013-04-21 03:33:00,
2013-04-20 21:42:00,47.0,35.0,29.92,SSW,198,0.0,5.0,62,0.00,,,0.00,,2013-04-21 03:42:00,
2013-04-20 21:52:00,47.0,35.0,29.92,South,171,1.0,4.0,63,0.00,,,0.00,,2013-04-21 03:52:00,
2013-04-20 22:02:00,46.0,35.0,29.93,South,190,1.0,4.0,64,0.00,,,0.00,,2013-04-21 04:02:00,
2013-04-20 22:12:00,46.0,35.0,29.93,South,190,1.0,4.0,64,0.00,,,0.00,,2013-04-21 04:12:00,
2013-04-20 22:23:00,46.0,35.0,29.93,SSW,194,0.0,4.0,64,0.00,,,0.00,,2013-04-21 04:23:00,
2013-04-20 22:33:00,46.0,34.0,29.93,SSW,193,1.0,3.0,63,0.00,,,0.00,,2013-04-21 04:33:00,
2013-04-20 22:42:00,46.0,34.0,29.93,SSW,193,1.0,3.0,63,0.00,,,0.00,,2013-04-21 04:42:00,
2013-04-20 22:53:00,46.0,35.0,29.93,South,189,0.0,5.0,64,0.00,,,0.00,,2013-04-21 04:53:00,
2013-04-20 23:02:00,45.0,34.0,29.93,SSE,165,0.0,1.0,65,0.00,,,0.00,,2013-04-21 05:02:00,
2013-04-20 23:12:00,45.0,34.0,29.93,SSE,165,0.0,1.0,65,0.00,,,0.00,,2013-04-21 05:12:00,
2013-04-20 23:22:00,45.0,34.0,29.93,SSW,211,0.0,3.0,65,0.00,,,0.00,,2013-04-21 05:22:00,
2013-04-20 23:32:00,45.0,34.0,29.93,SSW,211,0.0,0.0,65,0.00,,,0.00,,2013-04-21 05:32:00,
2013-04-20 23:42:00,45.0,34.0,29.93,SSW,211,0.0,0.0,65,0.00,,,0.00,,2013-04-21 05:42:00,
2013-04-20 23:52:00,44.0,33.0,29.93,SSW,200,0.0,0.0,66,0.00,,,0.00,,2013-04-21 05:52:00,